TimeCST,TemperatureF,Dew PointF,Humidity,Sea Level PressureIn,VisibilityMPH,Wind Direction,Wind SpeedMPH,Gust SpeedMPH,PrecipitationIn,Events,Conditions,WindDirDegrees,DateUTC
12:54 AM,16.0,-4.0,41,30.40,10.0,NNW,11.5,-,N/A,,Clear,330,2013-01-22 06:54:00
1:54 AM,16.0,-0.9,47,30.40,10.0,NNW,5.8,-,N/A,,Clear,330,2013-01-22 07:54:00
2:54 AM,16.0,-2.0,45,30.40,10.0,NW,8.1,-,N/A,,Clear,320,2013-01-22 08:54:00
3:54 AM,15.1,-0.9,49,30.41,10.0,NNW,6.9,-,N/A,,Clear,340,2013-01-22 09:54:00
4:54 AM,15.1,-0.9,49,30.43,10.0,NW,5.8,-,N/A,,Clear,310,2013-01-22 10:54:00
5:54 AM,15.1,-0.9,49,30.44,10.0,Variable,3.5,-,N/A,,Clear,0,2013-01-22 11:54:00
6:54 AM,14.0,-0.9,52,30.46,10.0,NNW,5.8,-,N/A,,Clear,340,2013-01-22 12:54:00
7:54 AM,14.0,-0.9,52,30.48,10.0,NW,4.6,-,N/A,,Clear,310,2013-01-22 13:54:00
8:54 AM,17.1,-0.9,45,30.48,10.0,North,6.9,-,N/A,,Clear,350,2013-01-22 14:54:00
9:54 AM,17.1,-2.9,41,30.51,10.0,NW,5.8,-,N/A,,Clear,320,2013-01-22 15:54:00
10:54 AM,18.0,-2.0,41,30.50,10.0,Calm,Calm,-,N/A,,Clear,0,2013-01-22 16:54:00
11:54 AM,21.0,-2.0,36,30.47,10.0,NW,8.1,-,N/A,,Clear,310,2013-01-22 17:54:00
12:54 PM,21.9,-2.9,34,30.45,10.0,West,9.2,-,N/A,,Mostly Cloudy,280,2013-01-22 18:54:00
1:54 PM,21.0,-2.0,36,30.44,10.0,West,5.8,-,N/A,,Overcast,280,2013-01-22 19:54:00
2:54 PM,21.9,-2.0,35,30.43,10.0,NW,8.1,-,N/A,,Overcast,310,2013-01-22 20:54:00
3:54 PM,21.0,1.0,42,30.45,10.0,West,6.9,-,N/A,,Overcast,260,2013-01-22 21:54:00
4:54 PM,21.0,-0.9,38,30.43,10.0,West,4.6,-,N/A,,Overcast,280,2013-01-22 22:54:00
5:54 PM,21.0,1.0,42,30.43,10.0,WNW,4.6,-,N/A,,Overcast,290,2013-01-22 23:54:00
6:54 PM,21.0,1.9,44,30.43,10.0,West,3.5,-,N/A,,Overcast,270,2013-01-23 00:54:00
7:54 PM,19.9,3.0,48,30.42,10.0,Calm,Calm,-,N/A,,Overcast,0,2013-01-23 01:54:00
8:54 PM,21.0,3.9,48,30.43,10.0,WNW,3.5,-,N/A,,Overcast,290,2013-01-23 02:54:00
9:54 PM,21.0,5.0,50,30.43,10.0,NW,4.6,-,N/A,,Overcast,320,2013-01-23 03:54:00
10:54 PM,21.0,6.1,53,30.43,10.0,Calm,Calm,-,N/A,,Overcast,0,2013-01-23 04:54:00
11:54 PM,21.0,7.0,55,30.43,10.0,Calm,Calm,-,N/A,,Overcast,0,2013-01-23 05:54:00